Regional Weather Roundup
Issued by NWS

Home | Current Version | Previous Version | Graphics & Text | Print | Product List | Glossary On
Versions: 1 2 3 4 5 6 7 8 9 10 11 12 13 14 15 16 17 18 19 20 21 22 23 24 25 26 27 28 29 30 31 32 33 34 35 36 37 38 39 40 41 42 43 44 45 46 47 48 49 50
000
ASUS43 KLOT 260700
RWRIL

ILLINOIS REGIONAL WEATHER ROUNDUP
NATIONAL WEATHER SERVICE CHICAGO/ROMEOVILLE IL
200 AM CDT TUE MAY 26 2015

NOTE: "FAIR" INDICATES FEW OR NO CLOUDS BELOW 12,000 FEET WITH NO
SIGNIFICANT WEATHER AND/OR OBSTRUCTIONS TO VISIBILITY.

* THESE STATIONS ARE NOT UNDER NWS QUALITY CONTROL. THEY ALSO MAY NOT
  REPORT WEATHER SUCH AS PRECIPITATION OR FOG.

ILZ001-002-007-009-015-016-024-260800-
NORTHWEST ILLINOIS

CITY           SKY/WX    TMP DP  RH WIND       PRES   REMARKS
MOLINE         CLEAR     71  65  81 S10       29.86F
STERLING*      CLEAR     68  63  83 S5        29.90R
$$

ILZ003-004-008-010-011-017-018-260800-
NORTH CENTRAL ILLINOIS

CITY           SKY/WX    TMP DP  RH WIND       PRES   REMARKS
ROCKFORD       PTCLDY    69  62  78 S7        29.92S
FREEPORT*      CLEAR     66  62  87 S10       29.91S
$$

ILZ005-006-012>014-019>023-260800-
NORTHEAST ILLINOIS

CITY           SKY/WX    TMP DP  RH WIND       PRES   REMARKS
CHICAGO-OHARE  PTCLDY    70  63  78 S12       29.93S
CHICAGO-MIDWAY PTCLDY    72  65  78 S12       29.93F
AURORA         PTCLDY    66  60  81 SE6       29.93F
WAUKEGAN       PTCLDY    68  60  75 S10       29.92S
DUPAGE AIRPORT CLEAR     68  63  84 S12       29.93F
WHEELING       CLEAR     70  62  76 S10       29.94F
NORTHERLY ISL    N/A     71  63  75 S10         N/A
$$

LMZ740>746-260800-
SOUTHERN LAKE MICHIGAN

STATION/POSITION SKY/WX   TEMP    WIND        PRES    VSBY  WAVE
                          AIR SEA DIR/SP/G                  HT/PER
                          (F)     (DEG/KT/KT) (MB)    (MI)  (FT/S)
SOUTHERN BUOY              46 38  190/ 12/ 12 1014.3R         1
HARRISON CRIB              70     190/ 22/ 25   N/A
BURNHAM HARBOR             72     210/ 12/ 16   N/A
CALUMET HARBOR             71     190/  9/ 14   N/A
BURNS HARBOR               70     190/ 10/ 15 1015.2S
MICHIGAN CITY              70     170/ 13/ 16   N/A
MICHIGAN CITY 6N           63 52  210/ 10/ 12   N/A           1/ 2
ST. JOSEPH                 62 54  210/ 10/ 12   N/A           1/ 3
$$

ILZ025>027-034>036-040-047-049-050-058-095>099-260800-
WEST-CENTRAL ILLINOIS

CITY           SKY/WX    TMP DP  RH WIND       PRES   REMARKS
QUINCY         CLOUDY    72  65  78 S9        29.87F
MACOMB*        PTCLDY    70  66  89 S10       29.91S
$$

ILZ028>032-037-038-041>044-048-051>054-059>061-260800-
CENTRAL ILLINOIS

CITY           SKY/WX    TMP DP  RH WIND       PRES   REMARKS
PEORIA         PTCLDY    71  66  84 S15       29.92S
SPRINGFIELD    MOCLDY    71  66  84 S12       29.93F
TAYLORVILLE    NOT AVBL
$$

ILZ033-039-045-046-055>057-062-063-260800-
EAST-CENTRAL ILLINOIS

CITY           SKY/WX    TMP DP  RH WIND       PRES   REMARKS
CHAMPAIGN      MOCLDY    68  65  90 S14       29.98F
MATTOON        CLOUDY    68  65  90 S12       29.97F
$$

ILZ079-100>102-260800-
SOUTHWEST ILLINOIS

CITY           SKY/WX    TMP DP  RH WIND       PRES   REMARKS
BELLEVILLE     CLOUDY    70  70  99 SE10      29.91F
CAHOKIA*       CLOUDY    73  67  81 SE9       29.90F
SPARTA*        CLOUDY    70  68  91 S9        29.95F
$$

ILZ064>066-069>071-074>076-080>082-084>086-088>090-092>094-260800-
SOUTH-CENTRAL ILLINOIS

CITY           SKY/WX    TMP DP  RH WIND       PRES   REMARKS
CARBONDALE     CLOUDY    71  67  87 S12       29.96S
MT. VERNON     CLOUDY    70  64  83 SE7       29.99S
SALEM*         CLOUDY    72  67  85 S6        29.97F
$$

ILZ067-068-072-073-078-083-087-091-260800-
SOUTHEAST ILLINOIS

CITY           SKY/WX    TMP DP  RH WIND       PRES   REMARKS
LAWRENCEVILLE  MOCLDY    68  66  93 SE10      30.01F
HARRISBURG*    CLOUDY    70  69  97 S8        30.01R
ROBINSON*      MOCLDY    67  65  94 S8        30.02F
$$

ABBREVIATIONS USED IN REMARKS
   TC - TEMPERATURE IN CELSIUS
  WCI - WIND CHILL INDEX
   HX - HEAT INDEX
  VSB - VISIBILITY
$$




USA.gov is the U.S. government's official web portal to all federal, state and local government web resources and services.